Wind_Speed
37 40 37 36 37 37 33 30 30 28 30 29 40 46 39 21 20 20 13 21 21 16 11 12 12 8 18 16 8 10 10 7 18 27 26 22 21 23 24 24 19 28 29 33
34 32 35 39 37 35 29 34 36 33 30 35 41 39 42 34 26 19 14 16 20 19 20 12 14 15 18 23 12 6 7 6 12 21 25 23 25 24 34 32 28 22 14 17
36 34 33 33 36 35 31 33 26 37 30 40 36 34 29 28 18 23 23 24 22 22 23 20 15 16 12 9 7 17 17 17 21 21 26 16 19 18 18 16 10 21 30 31
27 26 28 31 33 33 30 36 32 32 22 41 37 36 28 29 28 28 23 28 28 26 25 27 27 25 25 25 23 24 21 21 23 21 28 29 30 30 30 33 34 33 36 33
24 24 24 25 25 28 32 36 42 31 38 27 24 43 41 35 30 27 31 27 24 23 28 28 27 26 26 27 20 24 26 33 30 36 37 34 33 33 37 40 38 40 40 43
25 22 23 22 21 22 26 32 37 34 40 31 28 26 19 23 25 32 28 27 23 28 25 25 26 22 20 22 19 20 22 22 20 27 27 28 28 33 36 38 37 38 40 41
26 24 23 25 23 21 22 22 29 35 26 23 32 31 30 25 22 24 11 32 27 25 23 26 28 30 30 27 29 27 29 25 25 30 28 22 37 30 34 37 37 37 36 36
29 28 26 25 25 23 24 21 23 20 30 26 22 14 16 22 28 23 27 21 16 12 17 8 15 19 22 31 28 29 27 28 30 29 29 32 33 34 31 32 35 35 34 31
28 28 29 26 25 24 24 25 22 22 19 19 15 16 16 9 6 9 11 14 15 14 15 12 8 14 10 10 12 22 28 31 31 27 24 20 36 21 19 18 27 15 11 16
28 29 32 30 26 24 25 25 25 25 24 20 15 11 12 12 9 12 14 14 13 15 19 19 21 25 20 23 22 18 17 19 28 32 27 21 26 24 25 18 13 10 11 8
33 29 30 29 27 27 28 24 24 22 24 22 21 20 19 17 17 19 18 13 14 18 13 3 11 8 11 18 25 26 26 23 21 20 18 14 12 9 11 10 14 16 15 14
31 31 29 29 28 33 29 29 26 24 24 15 24 25 25 22 19 17 16 16 11 8 10 9 12 19 17 10 11 18 29 23 17 10 9 12 11 11 16 23 25 26 29 25
30 31 31 29 32 32 35 32 27 23 24 24 23 22 17 20 20 20 20 18 18 21 16 22 20 14 10 11 11 19 8 9 13 11 6 10 10 13 13 18 20 18 15 8
28 29 28 28 26 21 27 29 25 21 21 21 17 20 19 19 23 23 26 25 21 19 15 18 21 22 15 15 17 24 24 8 6 12 13 14 9 8 12 18 17 15 6 3
27 29 27 24 22 21 19 21 26 21 19 10 11 14 11 11 17 20 21 17 19 22 21 23 21 18 20 26 29 21 11 11 13 12 11 12 12 13 16 13 17 14 10 10
26 27 26 24 21 20 22 25 22 21 23 21 18 12 14 12 17 18 14 16 17 21 22 21 23 21 18 18 23 18 16 15 13 15 14 15 18 19 16 16 14 14 15 15
25 25 24 24 23 23 31 19 18 15 15 18 15 11 8 7 15 17 19 21 22 22 23 29 20 14 18 30 41 28 22 19 17 15 20 18 16 15 12 11 13 15 16 16
26 23 21 22 23 25 28 19 10 12 14 16 10 13 13 12 13 15 19 22 24 28 28 19 23 21 23 23 23 17 15 17 17 18 15 13 10 9 11 13 15 14 15 16
26 24 21 20 20 17 17 15 13 14 16 9 14 15 16 11 14 14 16 17 24 24 27 29 21 23 30 29 18 15 12 15 11 10 9 9 8 9 10 13 16 18 19 20
23 22 21 18 16 14 11 9 11 15 19 23 29 17 19 12 12 4 9 16 23 16 23 15 32 33 30 24 12 9 11 12 10 9 9 8 11 13 17 19 21 22 22 21
23 22 20 13 12 10 11 8 8 8 12 20 27 28 28 21 21 16 12 11 10 13 13 20 18 27 30 30 27 21 16 16 14 12 11 14 17 19 22 24 25 26 25 21
19 16 13 13 13 7 7 7 8 11 9 12 15 16 15 19 25 18 14 17 8 6 13 13 11 12 15 15 20 20 21 17 15 14 16 16 18 20 22 23 23 21 20 17
15 13 12 6 7 9 7 10 9 10 15 15 10 11 13 14 11 12 8 7 6 5 8 5 8 7 11 11 18 20 16 13 14 15 14 15 18 19 19 21 23 24 25 21
9 7 6 6 7 9 16 16 15 16 19 18 18 22 9 17 12 5 4 3 4 2 3 2 3 13 14 13 12 10 10 11 11 12 14 16 20 23 25 23 19 21 24 24
6 7 7 12 13 15 15 12 14 16 18 19 19 12 8 8 4 3 2 3 3 4 2 3 6 7 12 10 9 9 11 11 11 14 16 19 24 29 26 26 28 28 26 24
6 5 7 10 10 6 5 4 5 6 5 5 6 4 2 3 2 2 3 2 1 1 3 8 9 9 9 9 11 12 12 12 13 15 18 20 25 23 21 21 23 26 27 27
4 7 9 8 7 8 7 7 5 6 2 3 3 2 2 2 2 3 4 4 5 8 11 10 9 9 10 11 12 12 11 13 15 17 18 18 23 23 23 24 23 23 24 24
Wind_Direction
258 259 252 245 238 239 241 238 245 228 236 231 229 224 225 230 224 244 240 225 206 199 203 215 220 205 199 187 209 249 238 259 257 249 250 252 249 253 248 247 254 246 257 263
259 258 250 241 240 238 232 236 239 234 246 235 236 226 238 232 233 229 233 240 244 251 253 265 256 260 255 266 283 235 194 235 283 264 254 251 242 258 256 257 260 239 250 262
255 252 244 240 239 236 226 221 225 233 236 243 240 234 227 233 229 228 228 248 251 247 249 245 254 250 269 253 266 270 271 274 252 261 268 291 296 282 296 289 270 268 262 275
245 247 237 234 234 233 226 216 235 228 232 228 228 237 244 257 258 249 250 239 234 242 252 253 254 261 263 260 263 260 262 262 253 255 271 278 277 272 274 271 271 268 274 273
244 242 241 233 225 224 220 222 225 231 239 245 247 244 248 242 249 248 240 237 242 246 244 249 260 259 256 260 259 246 247 257 263 265 268 269 270 267 265 267 267 266 268 270
236 238 232 235 229 219 217 219 226 233 237 240 243 244 251 250 259 236 253 244 241 240 244 248 240 245 254 250 251 251 247 248 251 257 267 274 270 259 259 264 264 264 267 269
235 230 232 228 226 225 221 224 226 222 239 230 241 247 248 245 244 239 275 235 231 228 228 240 247 253 251 249 249 248 250 250 256 266 277 271 265 267 264 267 269 269 269 270
238 228 223 224 223 223 222 220 233 233 239 252 255 240 223 240 245 265 270 231 227 257 265 265 254 256 249 248 248 238 242 249 254 253 257 266 273 265 265 268 271 271 271 271
237 225 220 219 220 219 222 226 229 231 250 247 256 261 278 281 251 248 281 247 260 248 248 251 237 236 247 240 229 228 236 238 241 249 253 259 265 275 252 261 259 278 307 293
232 224 220 215 217 218 223 225 229 232 240 241 258 243 259 263 253 267 273 270 276 285 242 235 243 247 248 260 258 237 233 230 236 247 250 257 263 277 276 278 297 320 277 321
223 220 221 217 221 223 222 225 223 223 240 246 264 251 245 252 253 255 265 276 268 263 292 345 236 247 254 256 256 253 255 244 245 255 245 267 273 276 250 273 288 283 248 257
218 219 217 213 219 225 218 223 230 229 232 241 240 246 251 243 236 239 243 246 252 259 275 292 309 317 291 274 281 274 250 231 256 258 251 301 311 305 300 302 289 277 263 261
212 214 218 218 220 225 214 215 219 222 233 244 256 251 254 255 260 261 249 243 253 251 250 272 282 267 282 280 283 312 279 237 260 284 280 304 307 304 314 341 329 278 246 300
207 207 211 216 218 216 224 216 213 219 235 245 257 271 264 262 264 264 259 255 237 247 236 254 260 265 278 277 280 297 295 258 270 280 285 289 291 294 302 314 331 332 238 200
199 201 205 210 213 219 221 216 218 214 222 240 236 255 277 289 254 253 256 254 248 235 240 240 245 253 268 276 288 275 267 273 271 273 294 295 297 292 294 306 303 311 319 308
192 195 199 201 202 202 203 201 221 230 234 244 266 272 264 265 255 254 256 237 245 242 241 244 244 242 248 268 263 264 270 274 270 276 278 274 278 285 295 293 289 293 287 286
181 188 195 198 197 212 191 211 230 216 223 236 268 286 287 246 234 242 241 240 237 243 246 238 236 234 242 253 261 262 268 262 265 271 275 275 287 294 293 288 279 286 287 288
175 175 181 189 195 212 210 221 218 216 223 237 252 260 269 265 252 241 232 231 235 242 242 237 229 233 235 253 256 260 276 265 256 262 264 279 273 295 316 310 305 283 279 280
165 160 162 163 173 183 203 214 222 228 226 229 245 248 265 252 257 242 236 231 233 247 245 232 229 221 222 238 247 271 235 239 242 250 246 254 278 296 302 306 303 296 291 280
159 163 160 164 188 199 209 220 230 237 239 240 240 238 254 264 254 215 237 234 233 227 235 219 226 233 237 231 232 248 216 233 244 235 250 280 279 285 288 295 295 296 291 287
162 160 166 176 186 198 216 223 223 234 247 254 254 252 250 254 256 267 261 260 229 219 220 204 231 242 243 233 236 225 236 243 243 250 274 285 290 287 285 286 285 283 279 276
161 169 175 173 186 203 210 226 227 235 242 248 244 249 251 245 246 252 256 245 244 232 198 203 243 241 233 235 215 221 229 235 241 272 283 284 281 283 283 283 284 283 275 269
162 166 176 180 209 222 218 219 229 235 248 254 255 250 239 237 245 233 218 216 226 181 190 220 236 252 246 207 200 201 202 229 264 274 277 286 292 293 291 291 286 282 284 284
171 176 202 209 222 231 231 236 240 240 246 260 275 295 267 222 213 221 191 217 162 211 234 210 206 229 189 177 178 195 229 256 268 274 284 296 303 303 297 288 280 278 280 283
192 206 223 238 249 257 271 269 266 264 265 268 272 284 247 191 198 174 181 172 214 222 220 230 191 168 177 191 213 241 257 262 277 289 300 300 294 297 293 281 272 276 282 281
259 248 262 306 316 338 303 320 355 342 277 253 252 263 178 200 152 158 184 193 215 214 175 142 155 181 202 237 255 260 265 273 291 292 298 296 309 312 309 299 287 276 275 276
262 306 330 317 320 328 329 317 343 360 19 247 222 245 196 164 201 201 192 194 167 177 184 196 216 241 261 261 258 263 273 285 290 292 298 300 322 310 309 304 291 279 274 274
Height
2972 2975 2978 2981 2983 2987 2990 2993 2993 2998 3001 3004 2999 2999 3003 3010 3010 3012 3012 3012 3012 3014 3015 3016 3014 3016 3016 3016 3020 3023 3024 3021 3018 3020 3022 3023 3021 3021 3022 3018 3015 3015 3012 3004
2964 2966 2969 2972 2975 2979 2985 2984 2987 2992 2993 2992 2989 2993 2998 3003 3001 3004 3008 3009 3010 3012 3010 3014 3013 3014 3016 3012 3016 3018 3016 3017 3015 3011 3016 3014 3013 3015 3015 3011 3011 3004 3006 3002
2954 2956 2959 2962 2967 2970 2977 2980 2975 2983 2983 2984 2985 2989 2990 2990 2991 2995 3001 3005 3008 3008 3007 3008 3008 3010 3011 3010 3014 3013 3013 3013 3014 3011 3013 3013 3007 3006 3007 3006 3003 2999 2997 2999
2945 2948 2950 2953 2956 2962 2968 2971 2969 2975 2975 2977 2977 2984 2985 2985 2985 2988 2994 2996 2999 3002 3001 3003 3002 3006 3006 3007 3008 3009 3008 3006 3007 3006 3008 3009 3004 3003 3003 3002 2999 2998 2993 2996
2939 2942 2944 2945 2950 2953 2958 2961 2965 2968 2971 2975 2974 2975 2975 2979 2981 2984 2983 2987 2992 2992 2992 2995 2996 3000 2999 2999 3001 3001 3002 2997 2999 2998 2999 2999 2996 2997 2993 2992 2992 2990 2987 2985
2933 2935 2939 2943 2945 2947 2950 2957 2957 2962 2964 2966 2968 2968 2969 2971 2973 2975 2975 2980 2981 2985 2987 2987 2986 2988 2990 2991 2993 2995 2996 2994 2993 2990 2991 2990 2986 2983 2984 2984 2982 2980 2975 2976
2926 2930 2934 2937 2941 2944 2950 2952 2953 2955 2955 2958 2961 2965 2968 2967 2970 2970 2971 2973 2975 2978 2976 2979 2982 2982 2982 2983 2984 2989 2989 2988 2989 2986 2988 2982 2973 2978 2976 2972 2969 2968 2966 2966
2919 2924 2928 2932 2936 2940 2944 2948 2949 2949 2950 2953 2956 2957 2959 2961 2962 2965 2969 2971 2972 2971 2971 2974 2975 2977 2976 2971 2975 2978 2982 2982 2981 2981 2978 2973 2970 2965 2966 2963 2960 2959 2957 2957
2912 2917 2922 2927 2931 2936 2940 2944 2945 2948 2949 2950 2953 2952 2955 2958 2958 2963 2966 2965 2967 2970 2971 2971 2971 2970 2969 2965 2965 2967 2971 2972 2975 2974 2970 2963 2956 2960 2953 2952 2950 2952 2946 2948
2906 2911 2916 2921 2926 2931 2934 2939 2943 2945 2947 2949 2951 2954 2955 2957 2960 2963 2964 2964 2965 2964 2964 2964 2966 2965 2965 2963 2961 2963 2964 2964 2965 2964 2961 2954 2952 2952 2952 2952 2952 2947 2946 2946
2899 2905 2910 2916 2922 2926 2930 2935 2938 2942 2943 2946 2946 2948 2951 2954 2957 2960 2962 2962 2960 2961 2961 2959 2958 2957 2957 2956 2956 2956 2956 2957 2957 2956 2954 2949 2947 2948 2949 2947 2945 2943 2943 2940
2892 2899 2905 2911 2916 2920 2926 2930 2933 2937 2939 2941 2939 2942 2944 2947 2951 2953 2954 2956 2957 2957 2957 2958 2958 2957 2955 2954 2949 2946 2947 2949 2952 2951 2946 2940 2941 2944 2944 2941 2939 2938 2937 2936
2887 2894 2900 2905 2911 2914 2919 2924 2928 2932 2934 2935 2936 2937 2941 2941 2943 2945 2947 2951 2953 2953 2954 2955 2956 2955 2953 2950 2946 2942 2942 2945 2945 2947 2946 2945 2945 2942 2940 2937 2932 2931 2931 2933
2881 2889 2895 2901 2907 2912 2917 2921 2925 2929 2932 2932 2935 2933 2934 2937 2938 2939 2939 2942 2946 2947 2950 2950 2950 2952 2950 2945 2946 2944 2939 2940 2942 2943 2943 2943 2941 2940 2938 2935 2933 2932 2930 2929
2878 2885 2892 2898 2904 2910 2914 2918 2921 2925 2930 2930 2930 2930 2931 2930 2931 2933 2934 2936 2938 2940 2942 2942 2943 2945 2946 2941 2941 2939 2938 2939 2939 2939 2940 2939 2939 2938 2936 2935 2932 2931 2931 2930
2876 2883 2890 2896 2902 2907 2911 2914 2918 2921 2924 2927 2926 2927 2925 2926 2927 2928 2929 2931 2933 2934 2935 2935 2936 2940 2942 2937 2934 2935 2936 2936 2936 2936 2936 2936 2933 2932 2932 2932 2932 2931 2930 2929
2876 2882 2889 2895 2900 2905 2906 2912 2915 2918 2921 2923 2923 2922 2921 2920 2922 2924 2925 2926 2927 2927 2928 2927 2931 2935 2933 2930 2922 2929 2929 2931 2931 2933 2932 2930 2929 2929 2929 2928 2928 2927 2926 2925
2876 2882 2889 2894 2900 2904 2905 2909 2913 2915 2918 2920 2919 2918 2919 2919 2917 2917 2919 2919 2920 2918 2919 2922 2923 2929 2929 2922 2920 2922 2922 2923 2925 2925 2925 2925 2926 2925 2924 2923 2922 2922 2922 2921
2877 2884 2890 2893 2898 2903 2906 2909 2912 2913 2918 2915 2913 2914 2915 2913 2912 2912 2913 2913 2913 2913 2909 2913 2919 2917 2913 2907 2913 2916 2917 2921 2921 2921 2921 2922 2921 2921 2921 2920 2919 2917 2916 2915
2881 2888 2892 2897 2900 2903 2906 2908 2909 2910 2909 2908 2906 2909 2908 2910 2907 2906 2909 2907 2904 2903 2902 2908 2905 2902 2906 2908 2911 2913 2915 2915 2916 2917 2918 2919 2919 2917 2916 2914 2912 2911 2909 2908
2886 2890 2894 2898 2901 2904 2905 2906 2907 2906 2903 2900 2900 2901 2901 2905 2904 2905 2904 2899 2896 2894 2896 2898 2896 2893 2894 2900 2904 2909 2910 2911 2913 2914 2914 2913 2912 2911 2909 2907 2905 2904 2902 2901
2890 2893 2896 2899 2901 2903 2904 2902 2903 2900 2899 2896 2894 2894 2895 2897 2898 2898 2897 2895 2892 2886 2888 2891 2888 2890 2890 2892 2895 2901 2903 2907 2909 2909 2908 2906 2905 2904 2902 2901 2899 2898 2897 2895
2893 2896 2898 2900 2901 2900 2899 2897 2896 2895 2892 2891 2890 2891 2891 2891 2892 2891 2890 2888 2887 2886 2886 2885 2886 2886 2886 2888 2891 2896 2900 2904 2904 2903 2902 2900 2899 2897 2895 2893 2893 2892 2890 2888
2895 2897 2898 2898 2896 2893 2891 2891 2890 2890 2888 2888 2888 2886 2885 2884 2885 2885 2885 2886 2886 2885 2885 2885 2884 2884 2886 2889 2892 2896 2898 2899 2898 2897 2895 2894 2892 2891 2889 2888 2886 2885 2883 2881
2896 2896 2894 2891 2890 2888 2887 2886 2885 2884 2883 2883 2883 2882 2881 2881 2883 2884 2885 2885 2885 2885 2884 2884 2883 2884 2887 2890 2892 2893 2893 2892 2892 2891 2890 2889 2888 2884 2881 2879 2878 2877 2876 2874
2895 2892 2891 2888 2885 2885 2884 2883 2881 2880 2880 2880 2881 2879 2880 2880 2881 2883 2884 2884 2884 2884 2883 2882 2884 2886 2888 2889 2889 2888 2888 2888 2887 2886 2885 2884 2881 2876 2873 2871 2869 2868 2867 2866
2891 2889 2888 2887 2885 2884 2883 2882 2881 2881 2880 2880 2880 2880 2881 2881 2882 2883 2883 2883 2883 2882 2882 2883 2884 2885 2885 2885 2885 2884 2884 2883 2882 2881 2880 2878 2874 2871 2868 2865 2862 2860 2859 2858